Regional Weather Roundup
Issued by NWS Kansas City/Pleasant Hill, MO

Home | Current Version | Previous Version | Graphics & Text | Print | Product List | Glossary Off
Versions: 1 2 3 4 5 6 7 8 9 10 11 12 13 14 15 16 17 18 19 20 21 22 23 24 25 26 27 28 29 30 31 32 33 34 35 36 37 38 39 40 41 42 43 44 45 46 47 48 49 50

000
ASUS43 KEAX 181811
RWREAX

WEATHER ROUNDUP FOR EASTERN KANSAS AND NORTHWEST MISSOURI
NATIONAL WEATHER SERVICE KANSAS CITY/PLEASANT HILL MO
100 PM CDT SAT APR 18 2015

KSZ040-057-103>105-MOZ028-029-037-043-181900-
...KANSAS CITY METROPOLITAN AREA...

CITY           SKY/WX    TMP DP  RH WIND       PRES   REMARKS
K.C. INTL      CLOUDY    62  60  93 W6        29.90F
6HR MIN TEMP:  59; 6HR MAX TEMP:  64; 6HR PCP:  0.70;

K.C. DOWNTOWN  LGT RAIN  64  60  87 S5        29.92F
6HR MIN TEMP:  62; 6HR MAX TEMP:  66; 6HR PCP:  0.47;

LEES SUMMIT    LGT RAIN  62  59  90 S5        29.94R
6HR MIN TEMP:  60; 6HR MAX TEMP:  63; 6HR PCP:  0.38;

OLATHE - IXD   LGT RAIN  62  59  90 S6        29.94S
6HR MIN TEMP:  60; 6HR MAX TEMP:  62; 6HR PCP:  0.24;

OLATHE - OJC   LGT RAIN  62  59  90 S3        29.93S
6HR MIN TEMP:  60; 6HR MAX TEMP:  63; 6HR PCP:  0.17;

LAWRENCE       LGT RAIN  63  59  87 S7        29.93R

$$

MOZ001>008-011>017-020>025-030>033-038>040-044>046-053-054-181900-
...NORTHERN AND CENTRAL MISSOURI...

CITY           SKY/WX    TMP DP  RH WIND       PRES   REMARKS
ST. JOSEPH     RAIN      61  58  90 W16G23    29.89F FOG
6HR MIN TEMP:  60; 6HR MAX TEMP:  64; 6HR PCP:  0.53;

MOSBY          LGT RAIN  63  59  88 W3        29.91F
WARRENSBURG    RAIN      59  57  94 SW3       29.96R
WHITEMAN AFB   TSTM      61  60  94 W8        29.94F
6HR MIN TEMP:  61; 6HR MAX TEMP:  67; 6HR PCP:  0.06;

CLINTON        RAIN      63  63 100 CALM      29.97F
SEDALIA        RAIN      64  61  90 W10       29.94F FOG
6HR MIN TEMP:  61; 6HR MAX TEMP:  72; 6HR PCP:  0.35;

WARSAW         NOT AVBL
MARSHALL       PTSUNNY   72  64  78 SW8       29.92F
CHILLICOTHE      N/A     68  61  78 VRB6      29.93F
6HR MIN TEMP:  60; 6HR MAX TEMP:  71; 6HR PCP:  0.08;

MOBERLY        PTSUNNY   77  55  47 SE16      29.93F
KIRKSVILLE     CLOUDY    73  64  73 SE16G23   29.94F
6HR MIN TEMP:  60; 6HR MAX TEMP:  73; 6HR PCP:  0.55;


$$

MOZ041-047>049-056>058-063>065-088>090-097-181900-
...EASTERN AND SOUTHERN MISSOURI...

CITY           SKY/WX    TMP DP  RH WIND       PRES   REMARKS
ST. LOUIS INTL CLOUDY    74  61  63 SE9G17    29.98F
6HR MIN TEMP:  61; 6HR MAX TEMP:  74;

SPIRIT OF STL  CLOUDY    73  61  65 E7        29.96F
COLUMBIA       MOSUNNY   77  56  48 SE23G31   29.92F
JEFFERSON CITY PTSUNNY   74  59  59 SE15      29.92F
MEXICO         PTSUNNY   79  63  57 SE12      29.95F
HANNIBAL       CLOUDY    79  54  41 SE8       29.95F
ROLLA          CLOUDY    70  59  68 SE8       29.94F
LEBANON        TSTM      68  61  77 S5        29.96F
OSAGE BEACH    CLOUDY    73  59  60 S9G16     29.94F
SPRINGFIELD    CLOUDY    63  59  87 NW8       29.96S
BRANSON        CLOUDY    66  59  77 W9        29.97F
NEVADA         LGT RAIN  61  59  94 CALM      29.96F
JOPLIN         LGT RAIN  62  58  86 SE3       29.96F
WEST PLAINS    CLOUDY    68  58  70 SE12      29.98F

$$

IAZ060-094-KSZ022-034>040-054-083-096-NEZ052-066-093-181900-
...KANSAS...SOUTHEAST NEBRASKA AND IOWA...

CITY           SKY/WX    TMP DP  RH WIND       PRES   REMARKS
TOPEKA         LGT RAIN  63  60  90 NW3       29.90F
6HR MIN TEMP:  57; 6HR MAX TEMP:  63; 6HR PCP:  0.67;

MANHATTAN      CLOUDY    66  63  90 S12       29.87F
EMPORIA        CLOUDY    62  60  93 S9        29.92S
CHANUTE        LGT RAIN  63  60  90 E5        29.93F
WICHITA        PTSUNNY   67  58  72 SE14      29.89F
OMAHA          LGT RAIN  62  59  90 SE6       29.90S
LINCOLN        CLOUDY    63  59  87 E7        29.90R
FALLS CITY     LGT RAIN  63  61  93 SE8       29.91F FOG
LAMONI         CLOUDY    71  60  68 S16       29.88F
DES MOINES     CLOUDY    74  56  53 SE14G22   29.90F

$$



USA.gov is the U.S. government's official web portal to all federal, state and local government web resources and services.